Hope Airport
CYHE : rendu visible

Aérodrome :











RETROUVEZ-NOUS SUR...

 
LOGIN :

S'inscrire | Disclaimer

   EN    FR    IT 

 









Légende :    VFR   VFR Marginal   IFR   IFR Intensif   IFR Très Intensif
Visi : 
Plafond : 
>= 8 km
>= 3000ft
5 à 8 km
1000 à 3000 ft
1500m à 5 km
500 à 1000 ft
800 à 1500m
200 à 500 ft
< 800m
< 200 ft
Symboles :   Orages  Brouillard  Fortes neiges  Fortes précipitations  Vent > 20 kt






- Altitude de l'aérodrome : 128 ft
- Code IATA : YHE


CYHE - Hope

DERNIER METAR :
  • 301722Z AUTO 29013G20KT 3SM RA BKN024 OVC036 05/02 A2970 RMK SLP061

METARs EXPIRÉS :
  • 301716Z AUTO 29013G19KT 5SM RA BKN028 OVC036 05/02 A2970 RMK PRESRR SLP060
  • 301600Z AUTO 27011G16KT 230V300 9SM -RA OVC049 06/02 A2967 RMK PRESRR SLP050
  • 301433Z AUTO 29019G37KT 1 1/2SM +RA BR BKN021 OVC029 05/03 A2957 RMK PRESRR SLP017
  • 301430Z AUTO 29017G37KT 1 3/4SM RA BR BKN021 OVC029 05/03 A2956 RMK SLP013

TAF N/A



MET'MAP, la Météo Aéronautique d'un coup d'oeil ! - Copyright ORBIFLY Décembre 2007 - Disclaimer

ORBIFLY MET'MAP TEAM :

Programmation & Développement : Alexandra Zaïnal
Sur une idée originale de : Baudouin d'Aumeries
Assistance à la programmation : Marc-Olivier Méhu
Soutien technique & logistique : Manuel Goepfert

Contact : metmap@orbifly.com




SOURCES & CREDITS :

   NOAA       Earth
Advisory